Weather History for Chadron, NE

Change the Weather History Date:

Thursday, April 18, 2013

  Actual Average Record
Temperature  
Mean Temperature 26 °F 46 °F  
Max Temperature 33 °F 61 °F 85 °F (1985)
Min Temperature 19 °F 30 °F 16 °F (1956)
Degree Days  
Heating Degree Days 39 19  
Month to date heating degree days 539 400  
Since 1 July heating degree days 6308 6557  
Cooling Degree Days 0 0  
Month to date cooling degree days 0 0  
Year to date cooling degree days 0 0  
Moisture  
Dew Point 19 °F    
Average Humidity 77    
Maximum Humidity 92    
Minimum Humidity 61    
Precipitation  
Precipitation 0.02 in 0.07 in 2.42 in (1920)
Month to date precipitation 0.30 1.02  
Year to date precipitation 1.84 3.22  
Sea Level Pressure  
Sea Level Pressure 30.18 in    
Wind  
Wind Speed 13 mph (NW)    
Max Wind Speed 23 mph    
Max Gust Speed 29 mph    
Visibility 5 miles    
Events Fog , Snow    
T = Trace of Precipitation, MM = Missing Value Source: NWS Daily Summary

Daily Weather History Graph

Daily Weather History Graph

Search for Another Location

Airport:

Trip Planner

Search our weather history database for the weather conditions in past years. The results will help you decide how hot, cold, wet, or windy it might be!

Date:

Astronomy

Apr. 18, 2013 Rise Set
Actual Time 6:05 AM MDT 7:38 PM MDT
Civil Twilight 5:35 AM MDT 8:08 PM MDT
Nautical Twilight 4:59 AM MDT 8:44 PM MDT
Astronomical Twilight 4:21 AM MDT 9:22 PM MDT
Moon 12:17 PM MDT (4/18) 1:56 AM MDT (4/18)
Length of Visible Light 14h 32m
Length of Day
13h 33m
First Quarter, 52% of the Moon is Illuminated
Apr 18
First Quarter
Apr 25
Full
May 2
Last Quarter
May 9
New
May 17
First Quarter

Hourly Weather History & Observations

Time (MDT) Temp. Windchill Dew Point Humidity Pressure Visibility Wind Dir Wind Speed Gust Speed Precip Events Conditions
12:53 AM 25.0 °F 12.6 °F 21.9 °F 88% 30.26 in 5.0 mi North 15.0 mph - 0.00 in   Overcast
1:53 AM 24.1 °F 13.1 °F 21.9 °F 91% 30.26 in 4.0 mi North 11.5 mph - 0.00 in Snow Light Snow
2:53 AM 23.0 °F 13.9 °F 19.9 °F 88% 30.27 in 8.0 mi NW 8.1 mph - 0.00 in   Overcast
3:00 AM 23.0 °F 13.9 °F 19.4 °F 86% 30.13 in 6.0 mi WNW 8.1 mph - N/A   Overcast
3:21 AM 21.2 °F 11.7 °F 19.4 °F 93% 30.13 in 2.5 mi WNW 8.1 mph - 0.00 in Snow Light Snow
3:30 AM 21.2 °F 10.1 °F 17.6 °F 86% 30.13 in 3.0 mi WNW 10.4 mph - 0.00 in Snow Light Snow
3:48 AM 19.4 °F 7.9 °F 15.8 °F 86% 30.13 in 3.0 mi NW 10.4 mph - 0.00 in Snow Light Snow
3:53 AM 19.9 °F 8.6 °F 15.1 °F 81% 30.27 in 2.5 mi NW 10.4 mph - 0.00 in Snow Light Snow
4:07 AM 19.4 °F 9.5 °F 15.8 °F 86% 30.12 in 2.5 mi NW 8.1 mph - 0.00 in Snow Light Snow
4:15 AM 19.4 °F 7.2 °F 15.8 °F 86% 30.12 in 3.0 mi NW 11.5 mph - 0.00 in Snow Light Snow
4:39 AM 19.4 °F 7.9 °F 17.6 °F 93% 30.12 in 3.0 mi NNW 10.4 mph - 0.00 in Snow Light Snow
4:46 AM 21.2 °F 10.1 °F 17.6 °F 86% 30.12 in 2.0 mi NNW 10.4 mph - 0.00 in Snow Light Snow
4:53 AM 21.0 °F 11.4 °F 17.1 °F 85% 30.26 in 3.0 mi NNW 8.1 mph - 0.00 in Snow Light Snow
5:14 AM 19.4 °F 8.6 °F 17.6 °F 93% 30.12 in 1.8 mi NW 9.2 mph - 0.00 in Snow Light Snow
5:44 AM 19.4 °F 7.9 °F 17.6 °F 93% 30.11 in 1.5 mi NW 10.4 mph - 0.00 in Snow Light Snow
5:53 AM 19.9 °F 7.9 °F 17.1 °F 89% 30.26 in 1.5 mi NW 11.5 mph - 0.00 in Snow Light Snow
6:02 AM 19.4 °F 6.6 °F 17.6 °F 93% 30.11 in 1.2 mi NW 12.7 mph - 0.00 in Snow Light Snow
6:16 AM 19.4 °F 7.9 °F 17.6 °F 93% 30.11 in 0.5 mi NW 10.4 mph - 0.00 in Fog , Snow Light Snow
6:24 AM 21.2 °F 9.5 °F 17.6 °F 86% 30.11 in 0.5 mi NW 11.5 mph - 0.00 in Fog , Snow Snow
6:53 AM 21.0 °F 10.6 °F 18.0 °F 88% 30.27 in 0.8 mi NW 9.2 mph - 0.00 in Snow Light Snow
7:00 AM 21.2 °F 10.1 °F 17.6 °F 86% 30.12 in 0.8 mi NW 10.4 mph - 0.00 in Snow Light Snow
7:11 AM 21.2 °F 10.9 °F 17.6 °F 86% 30.12 in 1.0 mi NW 9.2 mph - 0.00 in Snow Light Snow
7:53 AM 21.9 °F 12.5 °F 19.0 °F 89% 30.26 in 0.8 mi NW 8.1 mph - 0.00 in Snow Light Snow
8:00 AM 21.2 °F 11.7 °F 19.4 °F 93% 30.11 in 0.8 mi NW 8.1 mph - 0.00 in Snow Light Snow
8:09 AM 21.2 °F 11.7 °F 19.4 °F 93% 30.11 in 1.0 mi NW 8.1 mph - 0.00 in Snow Light Snow
8:23 AM 23.0 °F 13.9 °F 17.6 °F 80% 30.11 in 3.0 mi NW 8.1 mph - 0.00 in Snow Light Snow
8:53 AM 24.1 °F 16.0 °F 18.0 °F 77% 30.25 in 9.0 mi NW 6.9 mph - 0.00 in   Overcast
9:53 AM 25.0 °F 13.1 °F 18.0 °F 75% 30.25 in 9.0 mi NW 13.8 mph - N/A   Overcast
10:53 AM 26.1 °F 12.7 °F 19.0 °F 75% 30.24 in 8.0 mi NW 18.4 mph 24.2 mph 0.01 in   Mostly Cloudy
11:53 AM 27.0 °F 14.3 °F 19.9 °F 75% 30.24 in 8.0 mi NW 17.3 mph - 0.01 in   Mostly Cloudy
12:53 PM 28.9 °F 16.5 °F 19.9 °F 69% 30.23 in 9.0 mi NW 18.4 mph - N/A   Clear
1:53 PM 30.0 °F 19.5 °F 21.9 °F 72% 30.22 in 10.0 mi NW 13.8 mph - N/A   Clear
2:53 PM 30.9 °F 19.1 °F 21.0 °F 67% 30.22 in 10.0 mi NW 18.4 mph 21.9 mph N/A   Clear
3:53 PM 32.0 °F 19.5 °F 21.9 °F 66% 30.21 in 8.0 mi NW 21.9 mph 27.6 mph N/A   Clear
4:53 PM 32.0 °F 20.8 °F 21.0 °F 64% 30.20 in 10.0 mi NW 17.3 mph - N/A   Overcast
5:53 PM 33.1 °F 21.9 °F 21.9 °F 64% 30.20 in 9.0 mi NW 18.4 mph - N/A   Clear
6:53 PM 30.9 °F 21.2 °F 21.9 °F 69% 30.22 in 9.0 mi NW 12.7 mph - N/A   Clear
7:53 PM 27.0 °F 20.5 °F 21.0 °F 78% 30.23 in 10.0 mi NW 5.8 mph - N/A   Clear
8:53 PM 28.0 °F 20.0 °F 21.0 °F 75% 30.23 in 10.0 mi NW 8.1 mph - N/A   Clear
9:53 PM 26.1 °F 19.4 °F 19.9 °F 78% 30.21 in 9.0 mi WSW 5.8 mph - N/A   Partly Cloudy
10:53 PM 26.1 °F 19.4 °F 19.0 °F 75% 30.18 in 10.0 mi WSW 5.8 mph - N/A   Partly Cloudy
11:53 PM 26.1 °F 15.0 °F 19.0 °F 75% 30.15 in 10.0 mi West 12.7 mph - N/A   Clear